Location: Basses Si�yes
(44.0835°N, 6.2037°E)
Time: 04:15:18
(UTC+00:00)

USA 238 DEB - Pass Details

Date: 27 February 2020
Orbit: 1018 x 1194 km, 63.4° (Epoch: 31 March)

Event Time Altitude Azimuth Distance (km) Brightness Sun altitude
Rises 19:58:45 0° 322° (NW) 3,951 7.5 -29.0°
Reaches altitude 10° 20:01:23 10° 322° (NW) 3,014 6.7 -29.4°
Maximum altitude 20:08:38 84° 235° (SW) 1,171 3.8 -30.7°
Enters shadow 20:09:21 74° 166° (SSE) 1,206 3.7 -30.8°
